Regional Weather Roundup
Issued by NWS

Home | Current Version | Previous Version | Graphics & Text | Print | Product List | Glossary On
Versions: 1 2 3 4 5 6 7 8 9 10 11 12 13 14 15 16 17 18 19 20 21 22 23 24 25 26 27 28 29 30 31 32 33 34 35 36 37 38 39 40 41 42 43 44 45 46 47 48 49 50
000
ASUS43 KMKX 022311
RWRWI

WISCONSIN REGIONAL WEATHER ROUNDUP
NATIONAL WEATHER SERVICE MILWAUKEE/SULLIVAN WI
600 PM CDT TUE SEP 02 2014

NOTE: "FAIR" INDICATES FEW OR NO CLOUDS BELOW 12,000 FEET WITH NO
SIGNIFICANT WEATHER AND/OR OBSTRUCTIONS TO VISIBILITY.

WIZ001-002-006>008-014>016-023>028-030000-
NORTHWEST WISCONSIN

CITY           SKY/WX    TMP DP  RH WIND       PRES   REMARKS
SUPERIOR ARPT  MOSUNNY   73  54  51 SW8       29.80S
ASHLAND        MOSUNNY   72  53  51 SW8       29.82S
HAYWARD        MOSUNNY   73  52  47 SW10G17   29.86S
SIREN          SUNNY     74  50  42 W10       29.86S
RICE LAKE      SUNNY     73  50  43 SW8       29.89S
LADYSMITH      SUNNY     73  53  49 SW9       29.90S
EAU CLAIRE     MOSUNNY   75  53  46 W9        29.88S
MENOMONIE      CLEAR     77  51  40 SW10      29.89S
NEW RICHMOND   SUNNY     74  48  39 SW6       29.88F
OSCEOLA        SUNNY     75  50  41 SW7       29.90F
$$

WIZ003>005-009-010-017-018-030000-
NORTH CENTRAL WISCONSIN

CITY           SKY/WX    TMP DP  RH WIND       PRES   REMARKS
WOODRUFF       SUNNY     72  47  41 SW7       29.88S
RHINELANDER    SUNNY     71  50  47 W8        29.89S
EAGLE RIVER    SUNNY     71  45  40 W9        29.87S
LAND O LAKES   SUNNY     71  49  44 W5        29.87S
PHILLIPS       SUNNY     71  52  51 SW7       29.87F
TOMAHAWK       SUNNY     71  51  50 W7        29.89S
MEDFORD        SUNNY     71  53  53 W7        29.90S
MERRILL        SUNNY     73  54  52 W7        29.89R
$$

WIZ029-030-035-036-043>047-030000-
CENTRAL WISCONSIN

CITY           SKY/WX    TMP DP  RH WIND       PRES   REMARKS
WAUSAU         SUNNY     74  53  48 W9        29.87F
MOSINEE        MOSUNNY   73  55  53 W10       29.90S
MARSHFIELD     MOSUNNY   74  57  55 W8        29.89F
STEVENS POINT  MOSUNNY   69  57  65 W3        29.89F
WAUPACA        SUNNY     76  56  48 W8        29.88F
WAUTOMA        SUNNY     77  57  49 W8        29.89F
WISC RAPIDS    SUNNY     76  55  48 W10       29.90F
CAMP DOUGLAS   MOSUNNY   72  63  73 W7        29.90S
$$

WIZ011>013-019>022-031-037>040-048>050-030000-
NORTHEAST WISCONSIN

CITY           SKY/WX    TMP DP  RH WIND       PRES   REMARKS
ANTIGO         SUNNY     71  53  52 W6        29.90S
STURGEON BAY   SUNNY     73  59  60 W9        29.87S
GREEN BAY      SUNNY     75  60  59 W9        29.87S
MANITOWOC      SUNNY     76  57  51 W7        29.88S
APPLETON       PTSUNNY   75  54  46 W10       29.89S
CLINTONVILLE   SUNNY     73  54  49 W7        29.87S
OSHKOSH        SUNNY     76  56  49 W8        29.88S
$$

WIZ032>034-041-042-053>061-030000-
SOUTHWEST WISCONSIN

CITY           SKY/WX    TMP DP  RH WIND       PRES   REMARKS
LA CROSSE      SUNNY     80  59  48 W7        29.88F HX  81
SPARTA         SUNNY     76  55  48 W7        29.90F
VIROQUA        FAIR      74  57  55 W8        29.92F
BOSCOBEL       SUNNY     79  57  46 VRB5      29.91S HX  80
PRAIRIE DU CHI SUNNY     78  54  43 W9        29.90F
PLATTEVILLE    FAIR      75  58  55 CALM      29.93S
$$

WIZ056-057-062-063-064-067-068-030000-
SOUTH CENTRAL WISCONSIN

CITY           SKY/WX    TMP DP  RH WIND       PRES   REMARKS
BARABOO/DELLS  SUNNY     77  53  42 W7        29.90S
LONE ROCK      SUNNY     80  57  45 NW8       29.90F HX  80
WATERTOWN      SUNNY     76  55  48 W6        29.89F
MADISON        MOSUNNY   77  55  46 VRB6      29.90F
MIDDLETON      FAIR      76  55  47 W6        29.90F
MONROE         MOSUNNY   77  57  50 NW5       29.91F
JANESVILLE     SUNNY     79  55  44 NW8       29.90S
$$

WIZ051-052-058>065-066-070>072-030000-
SOUTHEAST WISCONSIN

CITY           SKY/WX    TMP DP  RH WIND       PRES   REMARKS
MILWAUKEE      MOSUNNY   78  54  43 W9        29.89S
WAUKESHA       MOSUNNY   73  57  56 W8        29.91F
MILWAUKEE/TIMM MOSUNNY   77  55  47 W7        29.90S
RACINE         SUNNY     77  58  51 W7        29.90F
BURLINGTON     SUNNY     74  57  54 W7        29.90S
KENOSHA        MOSUNNY   76  60  57 W5        29.89F
FOND DU LAC    SUNNY     75  55  49 W7        29.89S
SHEBOYGAN      SUNNY     73  62  68 SW3       29.88F
WEST BEND      SUNNY     73  54  49 W9        29.89F
JUNEAU         SUNNY     74  58  56 SW7       29.90F
$$

LSZ147-162-030000-
LAKE SUPERIOR

STATION/POSITION TIME  TEMP    WIND        PRES    WAVE
                       AIR SEA DIR/SP/G            HT/PER
                 (UTC) (F)     (DEG/KT/KT) (MB)    (FT/S)
W MID LAKE BUOY  2250   64 58  230/ 14/ 16 1008.6R   2/ 3
DEVILS ISLAND    2300   62     330/ 13/ 18 1009.9R
PORT WING        2200   75     220/  9/ 13 1009.1S
SAXON HARBOR     2200   74     210/  3/  9 1009.8S
$$

LMZ867-665-643>646-030000-
LAKE MICHIGAN

STATION/POSITION TIME  TEMP    WIND        PRES    WAVE
                       AIR SEA DIR/SP/G            HT/PER
                 (UTC) (F)     (DEG/KT/KT) (MB)    (FT/S)
N MID LAKE BUOY  2250   67 65  210/ 14/ 16 1010.0F   2/ 3
NORTHPORT PIER   2200   75     220/  4/ 10 1010.2F
KEWAUNEE LAKESHO 2200          310/  7/ 12 1010.3F
SHEBOYGAN LAKESH 2300   69 48  170/  9/ 10 1011.9F
ATWATER BUOY     2200   72     120/  8/ 10 1013.2F
MILWAUKEE LAKESH 2200   72      50/  6/  8   N/A
S MID LAKE BUOY  2250   73 73  180/  4/  4 1012.3F   0
KENOSHA   LAKESH 2300   77     290/  9/ 11 1011.2F
$$

TC  - TEMPERATURE IN CELSIUS
VSB - VISIBILITY IN STATUTE MILES
WCI - WIND CHILL INDEX
HX  - HEAT INDEX



USA.gov is the U.S. government's official web portal to all federal, state and local government web resources and services.